Flag for Israel Weather past 2 weeks in Bat Yam, Israel

Now
82 °F

Passing clouds.


Feels Like: 91 °F
Forecast: 81 / 88 °F
Wind: 3 mph from North

Location: Dov Airport

Current Time: Aug 5, 2015 at 12:58:20 AM

Latest Report: Aug 4, 2015 at 11:50 PM


Visibility: 6 mi

Pressure: 29.74 "Hg

Humidity: 84%

Dew point: 77 °F

Location of Bat YamLocation

Historic Weather in Bat Yam — Graph

°F

Bat Yam temperature yesterday

Maximum temperature yesterday: 90 °F (at 1:50 PM)
Minimum temperature yesterday: 82 °F (at 11:50 PM)
Average temperature yesterday: 86 °F

Past Weeks' High & Low Weather Summary

 TemperatureHumidityPressure
High90 °F (Aug 2, 2:50 PM)94% (Aug 2, 5:50 AM)29.83 "Hg (Aug 2, 5:50 AM)
Low73 °F (Jul 30, 5:50 AM)52% (Jul 23, 2:50 PM)29.65 "Hg (Jul 21, 5:50 AM)
Average83 °F74%29.72 "Hg
* Reported Jul 21 5:50 AM — Aug 4 11:50 PM, Bat Yam, Weather by CustomWeather, © 2015

Note: Actual official high and low records may vary slightly from our data, if they occured in-between our weather recording intervals... More about our weather records

Advertising

Bat Yam weather history for previous 24 hours

 ConditionsComfort  
Time TempWeatherWind HumidityBarometerVisibility
11:50 PM
Tue, Aug 4
82 °FPassing clouds.3 mph84%29.74 "Hg6 mi
10:50 PM84 °FPassing clouds.2 mph79%29.74 "HgN/A
9:50 PM84 °FPassing clouds.6 mph84%29.74 "HgN/A
8:50 PM84 °FPassing clouds.3 mph84%29.71 "HgN/A
7:50 PM84 °FScattered clouds.5 mph79%29.71 "HgN/A
6:50 PM86 °FScattered clouds.6 mph79%29.71 "HgN/A
5:50 PM86 °FScattered clouds.12 mph79%29.71 "HgN/A
4:50 PM86 °FScattered clouds.12 mph79%29.71 "HgN/A
3:50 PM88 °FPassing clouds.12 mph75%29.71 "HgN/A
2:50 PM88 °FPassing clouds.17 mph75%29.74 "HgN/A
1:50 PM90 °FSunny.13 mph71%29.74 "Hg10 mi
12:50 PM88 °FSunny.10 mph70%29.74 "Hg10 mi
11:50 AM88 °FSunny.14 mph70%29.74 "Hg10 mi
10:50 AM88 °FSunny.13 mph75%29.74 "Hg10 mi
9:50 AM86 °FSunny.13 mph75%29.74 "Hg10 mi
8:50 AM86 °FPassing clouds.13 mph75%29.74 "HgN/A
7:50 AM84 °FPassing clouds.3 mph79%29.74 "Hg6 mi
6:50 AM84 °FPassing clouds.5 mph84%29.74 "Hg5 mi
5:50 AM84 °FPassing clouds.5 mph79%29.74 "Hg6 mi
Weather by CustomWeather, © 2015

See weather overviewHow to use our weather pages